Change the Weather History Date:

Monday, January 13, 2014

  Actual Average (KBWI) Record (KBWI)
Temperature  
Mean Temperature 41 °F 33 °F  
Max Temperature 52 °F 41 °F 76 °F (1932)
Min Temperature 30 °F 24 °F 0 °F (1981)
Degree Days  
Heating Degree Days 24 32  
Month to date heating degree days 416  
Since 1 July heating degree days 2197  
Cooling Degree Days 0 0  
Month to date cooling degree days 0  
Year to date cooling degree days 0  
Moisture  
Dew Point 35 °F    
Average Humidity 78    
Maximum Humidity 96    
Minimum Humidity 57    
Precipitation  
Precipitation 0.00 in 0.10 in 1.18 in (1978)
Month to date precipitation 1.26  
Year to date precipitation 1.26  
Snow  
Snow 0.00 in 0.30 in 7.80 in (1964)
Month to date snowfall 2.3  
Since 1 July snowfall 5.7  
Snow Depth -    
Sea Level Pressure  
Sea Level Pressure 30.03 in    
Wind  
Wind Speed 4 mph (SSE)    
Max Wind Speed 15 mph    
Max Gust Speed -    
Visibility 9 miles    
Events      
T = Trace of Precipitation, MM = Missing Value Source: NWS Daily Summary

Daily Weather History Graph

Daily Weather History Graph

Search for Another Location

Airport or City:

Trip Planner

Search our weather history database for the weather conditions in past years. The results will help you decide how hot, cold, wet, or windy it might be!

Date:

Astronomy

Jan. 13, 2014 Rise Set
Actual Time 7:23 AM EST 5:05 PM EST
Civil Twilight 6:54 AM EST 5:35 PM EST
Nautical Twilight 6:21 AM EST 6:08 PM EST
Astronomical Twilight 5:49 AM EST 6:40 PM EST
Moon 3:18 PM EST (1/13) 5:11 AM EST (1/13)
Length of Visible Light 10h 40m
Length of Day
9h 41m
Waxing Gibbous, 95% of the Moon is Illuminated
Jan 13
Waxing Gibbous
Jan 15
Full
Jan 24
Last Quarter
Jan 30
New
Feb 6
First Quarter

Hourly Weather History & Observations

Time (EST) Temp. Windchill Dew Point Humidity Pressure Visibility Wind Dir Wind Speed Gust Speed Precip Events Conditions
12:54 AM 32.0 °F - 30.0 °F 92% 30.12 in 6.0 mi Calm Calm - N/A   Clear
1:54 AM 32.0 °F - 30.0 °F 92% 30.12 in 6.0 mi Calm Calm - N/A   Clear
2:54 AM 32.0 °F - 30.9 °F 96% 30.12 in 5.0 mi Calm Calm - N/A   Clear
3:54 AM 30.9 °F - 30.0 °F 96% 30.11 in 6.0 mi Calm Calm - N/A   Clear
4:54 AM 30.9 °F - 30.0 °F 96% 30.11 in 6.0 mi Calm Calm - N/A   Clear
5:54 AM 30.9 °F - 30.0 °F 96% 30.12 in 6.0 mi Calm Calm - N/A   Clear
6:54 AM 30.9 °F - 30.0 °F 96% 30.12 in 5.0 mi Calm Calm - N/A   Clear
7:54 AM 33.1 °F - 32.0 °F 96% 30.12 in 7.0 mi Calm Calm - N/A   Clear
8:54 AM 37.9 °F 33.5 °F 34.0 °F 86% 30.12 in 10.0 mi SSE 5.8 mph - N/A   Clear
9:54 AM 44.1 °F 40.1 °F 36.0 °F 73% 30.11 in 10.0 mi SSE 6.9 mph - N/A   Clear
10:54 AM 44.1 °F 38.6 °F 35.1 °F 71% 30.09 in 10.0 mi South 10.4 mph - N/A   Clear
11:54 AM 46.9 °F - 36.0 °F 66% 30.05 in 10.0 mi SSE 12.7 mph - N/A   Clear
12:54 PM 50.0 °F - 37.0 °F 61% 30.01 in 10.0 mi South 13.8 mph - N/A   Clear
1:54 PM 52.0 °F - 37.0 °F 57% 29.97 in 10.0 mi South 12.7 mph - N/A   Clear
2:54 PM 50.0 °F - 37.9 °F 63% 29.98 in 10.0 mi South 15.0 mph - N/A   Clear
3:54 PM 48.9 °F - 37.0 °F 64% 29.98 in 10.0 mi South 9.2 mph - N/A   Clear
4:54 PM 46.9 °F - 37.0 °F 68% 29.97 in 10.0 mi SSE 11.5 mph - N/A   Clear
5:54 PM 46.0 °F 41.4 °F 37.0 °F 71% 29.95 in 10.0 mi SSE 9.2 mph - N/A   Clear
6:54 PM 45.0 °F 40.1 °F 37.0 °F 74% 29.94 in 10.0 mi South 9.2 mph - N/A   Clear
7:54 PM 46.0 °F 41.4 °F 37.0 °F 71% 29.94 in 10.0 mi South 9.2 mph - N/A   Clear
8:54 PM 45.0 °F 40.1 °F 37.0 °F 74% 29.94 in 10.0 mi SSE 9.2 mph - N/A   Clear
9:54 PM 46.0 °F 41.9 °F 37.0 °F 71% 29.94 in 10.0 mi South 8.1 mph - N/A   Clear
10:54 PM 45.0 °F 41.8 °F 37.0 °F 74% 29.92 in 10.0 mi SSE 5.8 mph - N/A   Clear
11:54 PM 48.9 °F - 37.0 °F 64% 29.89 in 10.0 mi South 8.1 mph - N/A   Clear